Terminal Aerodrome Forecast
Issued by NWS Twin Cities, MN

Home | Current Version | Previous Version | Text Only | Print | Product List | Glossary On
Versions: 1 2 3 4 5 6 7 8 9 10 11 12 13 14 15 16 17 18
323
FTUS43 KMPX 230855 AAB
TAFEAU
TAF AMD
KEAU 230855Z 2309/2406 29004KT 4SM BR SKC
      TEMPO 2309/2312 1/4SM FG VV001
     FM231400 29014G22KT P6SM SCT025 OVC050
     FM240000 30010KT P6SM BKN050=

USA.gov is the U.S. government's official web portal to all federal, state and local government web resources and services.